Location: Stara Lesna
(49.1528°N, 20.2911°E)
Time: 19:03:24
(UTC+02:00)

Cosmos 1238 Rocket - Pass Details

Date: 13 July 2020
Orbit: 374 x 1030 km, 82.9° (Epoch: 10 August)

Event Time Altitude Azimuth Distance (km) Brightness Sun altitude
Exits shadow 02:06:43 26° 221° (SW) 1,521 4.5 -16.7°
Maximum altitude 02:09:26 49° 282° (WNW) 951 3.9 -16.6°
Drops below altitude 10° 02:13:54 10° 358° (N) 2,052 6.8 -16.3°
Sets 02:16:01 0° 4° (N) 2,863 7.9 -16.2°
